Location: Lanoux
(43.1180°N, 1.4255°E)
Time: 15:04:33
(UTC+00:00)

Thor Agena Rocket - Pass Details

Date: 13 December 2025
Orbit: 754 x 802 km, 99.1° (Epoch: 19 January)

Event Time Altitude Azimuth Distance (km) Brightness Sun altitude
Rises 16:51:59 0° 156° (SSE) 3,282 6.8 -6.0°
Reaches altitude 10° 16:54:19 10° 153° (SSE) 2,351 6.0 -6.4°
Maximum altitude 16:59:28 66° 72° (ENE) 855 3.5 -7.2°
Drops below altitude 10° 17:04:34 10° 351° (N) 2,337 5.9 -8.1°
Sets 17:06:53 0° 349° (N) 3,261 6.6 -8.5°
